Regional Weather Roundup
Issued by NWS

Home | Current Version | Previous Version | Text Only | Print | Product List | Glossary Off
Versions: 1 2 3 4 5 6 7 8 9 10 11 12 13 14 15 16 17 18 19 20 21 22 23 24 25 26 27 28 29 30 31 32 33 34 35 36 37 38 39 40 41 42 43 44 45 46 47 48 49 50

000
ASUS43 KMPX 181610
RWRMN
WEATHER ROUNDUP FOR MINNESOTA
NATIONAL WEATHER SERVICE TWIN CITIES/CHANHASSEN MN
1000 AM CST SUN FEB 18 2018


NOTE: "FAIR" INDICATES FEW OR NO CLOUDS BELOW 12,000 FEET WITH NO
SIGNIFICANT WEATHER AND/OR OBSTRUCTIONS TO VISIBILITY. N/A MEANS
CURRENT SKY AND/OR WEATHER CONDITIONS ARE NOT AVAILABLE.

MNZ060>063-068>070-181700-
   Twin Cities Metro

CITY           SKY/WX    TMP DP  RH WIND       PRES   REMARKS
TWIN CITIES    CLOUDY    26  19  74 SE18      29.81F WCI  13
ST PAUL        CLOUDY    27  18  69 SE20G29   29.83F WCI  13
CRYSTAL        CLOUDY    26  15  63 SE15G24   29.77F WCI  14
BLAINE         CLOUDY    28  16  59 SE16G24   29.78F WCI  17
LAKEVILLE      FAIR      27  23  86 S15G24    29.80F WCI  15
EDEN PRAIRIE   CLOUDY    29  21  72 SE20G29   29.76F WCI  16
SOUTH ST PAUL  FAIR      28  19  69 SE10G23   29.81F WCI  18
LAKE ELMO      FAIR      28  19  69 SE16G26   29.82F WCI  17
$$
MNZ001>005-007-008-013>017-022>024-027-028-181700-
   Northwest Minnesota

CITY           SKY/WX    TMP DP  RH WIND       PRES   REMARKS
BEMIDJI        SNOW      12   9  87 E9        29.79F VSB 1/4 WCI   0
HALLOCK        LGT SNOW   9   7  92 NE7       29.92R WCI  -3
WARROAD        LGT SNOW   7   1  78 NE7       29.91F WCI  -5
THIEF RVR FALL SNOW      12   8  84 NE13      29.84S VSB 1/2 WCI  -3
CROOKSTON      SNOW      12  10  92 NE12      29.84F VSB 1/2 WCI  -2
FOSSTON        SNOW      12   9  85 NE8       29.79F VSB 1/2 WCI   1
DETROIT LAKES  LGT SNOW  21  16  79 E15       29.68F WCI   8
MOORHEAD       CLOUDY    19  16  86 NE13      29.70F WCI   7
PARK RAPIDS    SNOW      16  12  84 E15G22    29.71F VSB 1/2 WCI   1
MAHNOMEN       LGT SNOW  18  14  84 E15       29.73F WCI   3
$$
MNZ006-009>011-018-025>026-181700-
   North Central Minnesota

CITY           SKY/WX    TMP DP  RH WIND       PRES   REMARKS
BAUDETTE       LGT SNOW   5   1  83 E9        29.88F VSB 1   WCI  -9
FLAG ISLAND    FAIR       3  -8  60 CALM      29.93S
INTL FALLS     SNOW       6   2  83 E8        29.91F VSB 1/2 WCI  -7
WASKISH        LGT SNOW  10   9  92 E8        29.87R VSB 3/4 WCI  -1
BIG FORK       SNOW      12   9  85 E3        29.86S VSB 1/2
LONGVILLE      FLURRIES  16  12  86 E5        29.78F WCI   9
GRAND RAPIDS   HVY SNOW  13  11  92 E5        29.85F VSB 1/4 WCI   5
CRANE LAKE     LGT SNOW   7   3  85 CALM      29.96F VSB 3/4
ORR            LGT SNOW   9   5  85 CALM      29.86F VSB 3/4
COOK           SNOW       9   7  92 E3        29.88F VSB 1/2
WALKER         SNOW      13  11  88 E9        29.77F VSB 1/2 WCI   1
$$
MNZ012-019>021-037-181700-
   Northeast Minnesota

CITY           SKY/WX    TMP DP  RH WIND       PRES   REMARKS
DULUTH         SNOW      16  12  84 SE16      29.88F VSB 1/4 WCI   1
ELY            SNOW      10   7  85 E6        29.92F VSB 1/2 WCI   1
HIBBING        SNOW      11   8  88 SE7       29.88R VSB 1/4 WCI   0
EVELETH        SNOW     N/A N/A N/A E5        29.89F VSB 1/2
DULUTH HARBOR  LGT SNOW  19  16  86 E8        29.97F WCI   9
TWO HARBORS    LGT SNOW  19  16  86 SE8       29.94S VSB 1   WCI   9
GRAND MARAIS     N/A     14   7  73 NE7       30.06F WCI   4
G MARAIS ARPRT MIX PCPN   7   0  72 E5        29.96F VSB 3/4 WCI  -2
$$
MNZ029>031-032-039>041-046>048-054>057-064-181700-
   West Central Minnesota

CITY           SKY/WX    TMP DP  RH WIND       PRES   REMARKS
FERGUS FALLS   FAIR      25  12  58 E13G20    29.63F WCI  13
WHEATON        CLOUDY    28  18  64 E20G25    29.59F WCI  15
MORRIS         CLOUDY    28  19  69 SE18G25   29.57F WCI  16
ALEXANDRIA     CLOUDY    24  13  62 E13       29.63F WCI  12
ELBOW LAKE     PTSUNNY   24  15  68 SE18G24   29.61F WCI  10
WADENA         FAIR      18  10  73 E10       29.68F WCI   6
GLENWOOD       FAIR      27  18  69 SE13      29.62F WCI  16
APPLETON       CLOUDY    30  21  69 SE12      29.56F WCI  21
BENSON         CLOUDY    30  21  69 S16G22    29.60F WCI  19
ORTONVILLE     CLOUDY    28  19  69 SE16      29.54F WCI  17
MADISON        CLOUDY    36  25  64 SE12      29.54F
WILLMAR        FAIR      30  21  69 SE17      29.63F WCI  18
$$
MNZ033>034-036-042>043-049>051-058-059-181700-
   Central Minnesota

CITY           SKY/WX    TMP DP  RH WIND       PRES   REMARKS
ST CLOUD       CLOUDY    26  14  60 SE17G25   29.70F WCI  13
SAUK CENTRE    FAIR      25  14  63 E15G21    29.65F WCI  12
PAYNESVILLE    CLOUDY    28  21  75 SE17G26   29.65F WCI  16
AITKIN         FAIR      18   7  62 E7        29.76F WCI   8
PINE RIVER     FAIR      16  10  79 E12       29.78F WCI   3
BRAINERD       CLOUDY    20   7  57 E8G18     29.75F WCI  10
STAPLES        FAIR      19   9  63 E7        29.70F WCI  10
LONG PRAIRIE   FAIR      23  12  63 E9        29.68F WCI  13
LITTLE FALLS   CLOUDY    23   5  46 SE10      29.72F WCI  12
LITCHFIELD     FAIR      30  25  80 SE10G22   29.66F WCI  21
BUFFALO        CLOUDY    27  18  69 SE17      29.71F WCI  14
MAPLE LAKE     CLOUDY    28  20  72 SE15G22   29.70F WCI  17
HUTCHINSON     PTSUNNY   31  24  76 SE20G28   29.65F WCI  19
$$
MNZ037-044-045-052-053-181700-
   East Central Minnesota

CITY           SKY/WX    TMP DP  RH WIND       PRES   REMARKS
PRINCETON      FAIR      25  10  54 SE13G23   29.72F WCI  13
MORA           FAIR      21   9  58 E8G18     29.80F WCI  12
CAMBRIDGE        N/A     27  12  54 SE12G21   29.76F WCI  16
RUSH CITY      CLOUDY    24  10  54 SE14G20   29.78F WCI  12
MOOSE LAKE     CLOUDY    19   5  53 E6        29.81F WCI  11
HINCKLEY       PTSUNNY   21   9  58 E14G22    29.79F WCI   8
CLOQUET        CLOUDY    14  10  85 E10       29.86F WCI   1
MCGREGOR       CLOUDY    19   9  63 E16G22    29.78F WCI   5
$$
MNZ071>073-080-081-089-090-097-098-181700-
   Southwest Minnesota

CITY           SKY/WX    TMP DP  RH WIND       PRES   REMARKS
MONTEVIDEO     CLOUDY    32  23  69 S13G18    29.56F WCI  22
GRANITE FALLS  CLOUDY    37  26  65 SE18      29.58F
CANBY          CLOUDY    38  25  58 S12G20    29.53F
MARSHALL       CLOUDY    38  24  57 S35G45    29.50F
REDWOOD FALLS  CLOUDY    31  23  72 S22G36    29.60F WCI  18
OLIVIA         CLOUDY    32  25  74 S21G28    29.60F WCI  20
PIPESTONE      CLOUDY    34  27  75 S21G28    29.54S WCI  22
WINDOM         MOSUNNY   36  18  48 S26G38    29.59F
WORTHINGTON    CLOUDY    37  26  64 S35G43    29.57F
JACKSON        CLOUDY    34  27  75 S28G39    29.66F WCI  20
TRACY          CLOUDY    38  28  68 S26G44    29.53F
SLAYTON        CLOUDY    35  27  74 S25G35    29.55F WCI  22
$$
MNZ065>067-074>077-082>085-091>093-181700-
   South Central Minnesota

CITY           SKY/WX    TMP DP  RH WIND       PRES   REMARKS
MANKATO        FAIR      32  25  75 S24G33    29.70F WCI  19
NEW ULM        CLOUDY    30  25  80 S23G32    29.67F WCI  17
ST JAMES       CLOUDY    30  27  86 SE26G32   29.66F WCI  16
FAIRMONT       MOSUNNY   34  26  72 S30G37    29.69F WCI  20
GLENCOE        CLOUDY    31  25  76 SE18G30   29.68F WCI  20
FARIBAULT      FAIR      30  25  80 SE23G37   29.78F HAZE    WCI  17
OWATONNA       FAIR      30  25  80 SE28G37   29.79F HAZE    WCI  16
WASECA         FAIR      32  27  80 SE20G30   29.78F WCI  20
ALBERT LEA     FAIR      30  23  74 S17G31    29.80F WCI  18
$$
MNZ078>079-086>088-094>096-181700-
   Southeast Minnesota

CITY           SKY/WX    TMP DP  RH WIND       PRES   REMARKS
ROCHESTER      FAIR      28  24  85 S28G41    29.84F WCI  13
RED WING       FAIR      28  18  64 SE14      29.88F WCI  17
STANTON        PTSUNNY   31  24  74 S23G29    29.80F HAZE    WCI  18
DODGE CENTER   FAIR      28  25  86 S29G39    29.82F FOG     WCI  13
WINONA         FAIR      34  27  75 S15G24    29.95F WCI  24
AUSTIN         FAIR      28  25  86 S17G28    29.84F WCI  16
PRESTON        FAIR      28  26  91 S20G33    29.91F WCI  15
$$
ABBREVIATIONS USED IN REMARKS
   TC - TEMPERATURES IN CELSIUS
  WCI - WIND CHILL INDEX
   HX - HEAT INDEX
  VSB - VISIBILITY
$$



USA.gov is the U.S. government's official web portal to all federal, state and local government web resources and services.